DELTA 1 DEB, 18540

Orbit data source: Space-Track

DELTA 1 DEB, 18540 is space debris in LEO originally from a launch on Thu, 29 Jul 1976 UTC launched from the Air Force Western Test Range (AFWTR). Debris objects in space refer to the collection of defunct objects orbiting the Earth. Examples of debris include non-operational satellites, rocket bodies, and fragments generated from explosions, collisions, or faulty payload assembly.

Loading next visibility...
Identifier
18540, 1976-077FC
Orbit
LEO
Country
Flag of USUS
Related business
Manufacturer
Unknown
Mission
Spacecraft
Bus & Motor
Unknown
Mass
Unknown
Launch date (UTC)
1976-07-29 (50 years ago)
Launch vehicle
Unknown
Launch site
Air Force Western Test Range (AFWTR)
Object type
Payload
Rocket body
Debris
Shape & HBR
Unknown shape, 0.1 m
Radar Cross Section
Medium (>0.1 m² and <1 m²)

Expand to show TLE details & history
Last TLE update: 7 hours ago

TLE from 7 hours ago
0 DELTA 1 DEB
1 18540U 76077FC  26171.29230237 -.00000960  00000-0 -55570-2 0  9991
2 18540 103.8299 305.8872 0386959  14.8707  16.1253 12.35632400615671
Epoch: 2026-06-20T07:00Z
TLE epoch observation values (Epoch: 2026-06-20T07:00:54.924Z)
Latitude
31.30178°
Longitude
-76.41547°
Altitude
1,235.894 km
Speed
7.373 km/s
True Right ascension
19h 49m 17s
True Declination
31° 09' 32"
Sunlit
Object was in daylight at epoch
Visualization orbit readout
Latitude
Unknown
Longitude
Unknown
Altitude
Unknown
Speed
Unknown
Apparent Right ascension
Unknown
Apparent Declination
Unknown
Sunlit
N/A
Visualization observer readout
Local Sidereal Time
01:23:14
Azimuth
Unknown
Elevation
Unknown
Doppler factor
Unknown
Orbital elements
Apogee altitude
1,828.6 km
Perigee altitude
1,217.128 km
Semi-major axis
7,901.001 km
Eccentricity
0.0387
Inclination
103.8299°
RAAN
305.8872°
Arg. of periapsis
14.8707°
True anomaly
17.41664°
Mean anomaly
16.1253°
Eccentric anomaly
16.76481°
Mean motion
3.09044 °/min
Orbital period
116.49 mins
BSTAR
-0.005557
Loading maneuver chart data...
Computing Atmospheric mass density...
Loading historical data...
Loading historical data...
Loading historical data...
Loading historical data...
Loading historical data...
Loading historical data...
Loading historical data...

Documentation

Showing up to 5 results
|